This is the latest recevied weather packets stored in our database for station/object K6CED. If no packets are shown the sender has not sent any weather packets the latest 10 day(s).
| Time | Temp. | Humidity | Pressure | Rain* | Wind** | Luminosity | Snow |
|---|---|---|---|---|---|---|---|
| 1778020788 | 16.67° C | 55% | 1016.1 hPa | 0 mm | - | 152 W/m² | - |
| 1778020485 | 16.67° C | 56% | 1016.2 hPa | 0 mm | - | 129 W/m² | - |
| 1778020181 | 16.67° C | 56% | 1016.4 hPa | 0 mm | - | 119 W/m² | - |
| 1778019877 | 16.67° C | 56% | 1016.4 hPa | 0 mm | - | 123 W/m² | - |
| 1778019573 | 16.67° C | 56% | 1016.3 hPa | 0 mm | - | 147 W/m² | - |
| 1778019271 | 16.67° C | 56% | 1016.4 hPa | 0 mm | - | 156 W/m² | - |
| 1778018968 | 16.67° C | 56% | 1016.4 hPa | 0 mm | - | 153 W/m² | - |
| 1778018665 | 17.22° C | 55% | 1016.4 hPa | 0 mm | - | 160 W/m² | - |
| 1778018362 | 17.22° C | 54% | 1016.2 hPa | 0 mm | - | 177 W/m² | - |
| 1778018061 | 17.78° C | 54% | 1016.3 hPa | 0 mm | - | 218 W/m² | - |
| 1778017758 | 17.78° C | 55% | 1016.3 hPa | 0 mm | - | 267 W/m² | - |
| 1778017455 | 18.33° C | 54% | 1016.5 hPa | 0 mm | - | 331 W/m² | - |
| 1778017153 | 17.78° C | 55% | 1016.5 hPa | 0 mm | - | 905 W/m² | - |
| 1778016850 | 18.33° C | 55% | 1016.5 hPa | 0 mm | - | 791 W/m² | - |
| 1778016546 | 18.89° C | 54% | 1016.5 hPa | 0 mm | - | 457 W/m² | - |
| 1778016243 | 18.89° C | 53% | 1016.5 hPa | 0 mm | - | 881 W/m² | - |
| 1778015939 | 18.89° C | 54% | 1016.5 hPa | 0 mm | - | 956 W/m² | - |
| 1778015637 | 18.33° C | 54% | 1016.4 hPa | 0 mm | - | 1008 W/m² | - |
| 1778015333 | 17.22° C | 56% | 1016.6 hPa | 0 mm | - | 925 W/m² | - |
| 1778015031 | 17.22° C | 56% | 1016.7 hPa | 0 mm | - | 310 W/m² | - |
| 1778014727 | 17.78° C | 54% | 1016.7 hPa | 0 mm | - | 243 W/m² | - |
| 1778014426 | 18.89° C | 51% | 1016.7 hPa | 0 mm | - | 1034 W/m² | - |
| 1778014122 | 18.33° C | 52% | 1016.6 hPa | 0 mm | - | 988 W/m² | - |
| 1778013820 | 18.33° C | 54% | 1016.6 hPa | 0 mm | - | 958 W/m² | - |
| 1778013517 | 17.78° C | 56% | 1017 hPa | 0 mm | - | 1012 W/m² | - |
* Rain latest hour (hover to see other rain measurements)
** Current wind speed in m/s (hover to see current wind gust speed)